Location: Helsinki
(60.1699°N, 24.9384°E)
Time: 03:39:09
(UTC+03:00)

ISS - Visible Passes

Search period start: 21 September 2020 00:00
Search period end: 01 October 2020 00:00
Orbit: 419 x 420 km, 51.6° (Epoch: 21 September)

Date Brightness Start Highest point End Pass type
(mag) Time Alt. Az. Time Alt. Az. Time Alt. Az.
21 Sep -1.5 20:23:32 10° SSE 20:24:22 11° SSE 20:25:11 10° SE visible
21 Sep -1.3 21:57:49 10° SW 21:58:29 13° SSW 21:58:29 13° SSW visible
22 Sep -1.9 21:10:45 10° SSW 21:12:59 17° S 21:12:59 17° S visible
23 Sep -1.7 20:23:47 10° SSW 20:25:51 15° SSE 20:27:26 12° SE visible
23 Sep -1.4 21:59:20 10° SW 22:00:24 15° SW 22:00:24 15° SW visible
24 Sep -2.0 21:12:06 10° SW 21:14:37 20° S 21:14:47 19° S visible
25 Sep -1.9 20:24:56 10° SW 20:27:22 19° S 20:29:08 13° SE visible
25 Sep -1.3 22:01:05 10° SW 22:02:05 14° SW 22:02:05 14° SW visible
26 Sep -1.9 21:13:42 10° SW 21:16:10 19° S 21:16:24 19° S visible
27 Sep -1.9 20:26:22 10° SW 20:28:53 20° S 20:30:42 13° SE visible
27 Sep -1.0 22:03:10 10° SW 22:03:39 11° SW 22:03:39 11° SW visible
28 Sep -1.8 19:39:05 10° SW 19:41:37 20° S 19:44:08 10° SE visible
28 Sep -1.6 21:15:32 10° SW 21:17:36 15° SSW 21:17:57 15° S visible
29 Sep -1.6 20:28:02 10° SW 20:30:21 17° SSW 20:32:15 12° SSE visible
30 Sep -1.6 19:40:36 10° SW 19:43:04 19° S 19:45:31 10° SE visible
30 Sep -1.1 21:18:05 10° SW 21:18:57 11° SSW 21:19:32 10° SSW visible
